period_start,C,m1,H,J0,J1,J2,J3,J4,J5,JA,JB,JC,JD,JJ,JK,JN,#
2014-07-16 00:00:09,0.00,0.08,0.00,24.83,29.22,31.52,9.46,39.02,1008.79,2031.99,3518.08,3279.04,3563.26,499.74,489.68,17.99,0000 0000 0000 0000 000000
2014-07-16 00:05:10,0.00,0.09,0.00,24.85,29.22,31.53,9.38,38.48,1008.75,2032.00,3518.06,3279.03,3563.14,499.34,489.24,18.03,0000 0000 0000 0000 000000
2014-07-16 00:10:11,0.00,0.09,0.00,24.86,29.23,31.53,9.36,38.23,1008.68,2032.00,3518.02,3279.02,3563.09,499.75,489.60,18.08,0000 0000 0000 0000 000000
2014-07-16 00:15:12,0.00,0.09,0.00,24.88,29.25,31.54,9.39,38.11,1008.47,2032.00,3518.00,3279.01,3563.04,499.76,489.63,18.12,0000 0000 0000 0000 000000
2014-07-16 00:20:13,0.00,0.09,0.00,24.90,29.25,31.53,9.47,38.03,1008.36,2032.00,3517.99,3279.00,3563.00,500.22,489.83,18.16,0000 0000 0000 0000 000000
2014-07-16 00:25:14,0.00,0.09,0.00,24.92,29.25,31.55,9.43,37.88,1008.49,2032.00,3517.96,3278.99,3562.99,500.20,489.82,18.20,0000 0000 0000 0000 000000
2014-07-16 00:30:16,0.00,0.09,0.00,24.93,29.26,31.56,9.45,38.08,1008.57,2032.00,3517.91,3278.99,3562.96,499.98,489.62,18.24,0000 0000 0000 0000 000000
2014-07-16 00:35:17,0.00,0.09,0.00,24.95,29.27,31.56,9.40,37.98,1008.34,2032.00,3517.89,3278.98,3562.97,499.69,489.27,18.28,0000 0000 0000 0000 000000
2014-07-16 00:40:17,0.01,0.09,0.00,24.98,29.27,31.58,9.37,37.98,1008.33,2032.00,3517.80,3278.96,3562.84,499.73,489.19,18.33,0000 0000 0000 0000 000000
2014-07-16 00:45:18,0.01,0.09,0.00,24.98,29.29,31.59,9.38,38.12,1008.32,2032.00,3517.34,3278.92,3562.55,500.13,489.52,18.37,0000 0000 0000 0000 000000
2014-07-16 00:50:19,-0.00,0.09,0.00,25.00,29.30,31.60,9.40,37.88,1008.32,2032.00,3517.13,3278.84,3562.33,499.65,489.04,18.41,0000 0000 0000 0000 000000
2014-07-16 00:55:21,0.03,0.09,0.00,25.03,29.30,31.64,9.39,38.01,1008.32,2032.00,3517.03,3278.45,3562.09,499.72,489.09,18.45,0000 0000 0000 0000 000000
2014-07-16 01:00:22,0.00,0.09,0.00,25.03,29.32,31.65,9.37,37.88,1008.29,2031.99,3517.00,3278.14,3562.01,499.92,489.39,18.49,0000 0000 0000 0000 000000
2014-07-16 01:05:23,0.00,0.09,0.00,25.03,29.32,31.65,9.41,37.93,1008.23,2031.99,3517.00,3278.09,3562.00,500.14,489.29,18.54,0000 0000 0000 0000 000000
2014-07-16 01:10:24,0.00,0.09,0.00,25.03,29.33,31.66,9.48,38.20,1008.04,2031.97,3516.99,3278.04,3562.00,500.02,489.28,18.58,0000 0000 0000 0000 000000
2014-07-16 01:15:25,0.00,0.09,0.00,25.04,29.35,31.67,9.37,37.98,1007.94,2031.99,3516.95,3278.01,3561.99,499.50,488.60,18.62,0000 0000 0000 0000 000000
2014-07-16 01:20:26,0.01,0.09,0.00,25.06,29.35,31.67,9.50,38.02,1008.24,2031.97,3516.65,3278.00,3561.96,499.99,489.18,18.66,0000 0000 0000 0000 000000
2014-07-16 01:25:27,0.00,0.09,0.00,25.11,29.36,31.69,9.41,37.90,1008.31,2031.97,3516.33,3278.00,3561.88,499.84,488.79,18.70,0000 0000 0000 0000 000000
2014-07-16 01:30:28,0.00,0.09,0.00,25.11,29.37,31.71,9.37,37.90,1008.01,2031.96,3516.13,3277.99,3561.72,499.74,488.99,18.74,0000 0000 0000 0000 000000
2014-07-16 01:35:29,0.00,0.09,0.00,25.10,29.37,31.70,9.43,37.74,1007.83,2031.94,3516.01,3277.98,3561.19,500.32,489.47,18.79,0000 0000 0000 0000 000000
2014-07-16 01:40:31,-0.01,0.09,0.00,25.07,29.40,31.72,9.38,37.89,1007.83,2031.87,3516.00,3277.91,3561.05,499.83,488.82,18.83,0000 0000 0000 0000 000000
2014-07-16 01:45:32,-0.00,0.09,0.00,25.09,29.40,31.73,9.51,37.73,1007.83,2031.84,3516.00,3277.79,3561.02,500.26,489.12,18.87,0000 0000 0000 0000 000000
2014-07-16 01:50:33,-0.01,0.09,0.00,25.09,29.40,31.74,9.45,37.56,1007.82,2031.64,3515.98,3277.40,3561.00,500.31,489.24,18.91,0000 0000 0000 0000 000000
2014-07-16 01:55:34,-0.00,0.09,0.00,25.10,29.42,31.75,9.42,37.52,1007.64,2031.51,3515.93,3277.11,3561.00,500.29,489.24,18.95,0000 0000 0000 0000 000000
2014-07-16 02:00:35,-0.00,0.09,0.00,25.11,29.42,31.76,9.44,37.53,1007.53,2031.45,3515.73,3277.03,3560.99,499.85,488.70,19.00,0000 0000 0000 0000 000000
2014-07-16 02:05:36,0.00,0.09,0.00,25.10,29.43,31.77,9.41,37.42,1007.35,2031.44,3515.64,3277.04,3560.97,499.91,488.59,19.04,0000 0000 0000 0000 000000
2014-07-16 02:10:37,0.00,0.09,0.00,25.11,29.45,31.77,9.45,38.01,1007.34,2031.35,3515.15,3277.00,3560.85,500.26,488.92,19.08,0000 0000 0000 0000 000000
2014-07-16 02:15:38,-0.00,0.09,0.00,25.13,29.45,31.77,9.41,38.04,1007.34,2031.17,3515.00,3277.00,3560.37,500.18,488.95,19.12,0000 0000 0000 0000 000000
2014-07-16 02:20:39,-0.01,0.09,0.00,25.15,29.46,31.79,9.41,37.89,1007.34,2031.05,3514.99,3276.98,3560.07,500.41,488.94,19.16,0000 0000 0000 0000 000000
2014-07-16 02:25:40,0.00,0.09,0.00,25.17,29.47,31.80,9.47,37.73,1007.27,2031.04,3514.96,3276.96,3560.00,499.91,488.08,19.21,0000 0000 0000 0000 000000
2014-07-16 02:30:42,-0.00,0.09,0.00,25.15,29.47,31.80,9.32,37.72,1007.28,2031.04,3514.88,3276.85,3560.00,499.49,488.14,19.25,0000 0000 0000 0000 000000
2014-07-16 02:35:43,0.01,0.09,0.00,25.15,29.50,31.81,9.49,37.67,1007.28,2031.03,3514.79,3276.71,3560.00,500.39,489.06,19.29,0000 0000 0000 0000 000000
2014-07-16 02:40:44,0.01,0.09,0.00,25.14,29.50,31.83,9.39,37.64,1007.18,2031.02,3514.42,3276.38,3560.00,499.75,488.50,19.33,0000 0000 0000 0000 000000
2014-07-16 02:45:45,0.01,0.09,0.00,25.18,29.52,31.82,9.42,37.72,1007.27,2031.02,3514.22,3276.16,3559.98,499.99,488.44,19.37,0000 0000 0000 0000 000000
2014-07-16 02:50:46,0.01,0.09,0.00,25.20,29.52,31.84,9.37,37.60,1007.29,2031.01,3514.05,3276.05,3559.93,499.71,488.17,19.41,0000 0000 0000 0000 000000
2014-07-16 02:55:48,0.01,0.09,0.00,25.23,29.54,31.84,9.38,37.53,1007.28,2031.01,3514.00,3276.00,3559.57,500.01,488.32,19.46,0000 0000 0000 0000 000000
2014-07-16 03:00:49,0.00,0.09,0.00,25.26,29.55,31.86,9.32,37.42,1007.23,2031.00,3513.99,3276.00,3559.09,500.09,488.38,19.50,0000 0000 0000 0000 000000
2014-07-16 03:05:50,0.00,0.09,0.00,25.28,29.56,31.87,9.43,37.54,1007.07,2031.00,3513.99,3276.00,3559.02,500.08,488.20,19.54,0000 0000 0000 0000 000000
2014-07-16 03:10:51,0.00,0.09,0.00,25.31,29.57,31.87,9.38,37.59,1007.15,2031.00,3513.93,3275.98,3559.00,499.92,488.10,19.58,0000 0000 0000 0000 000000
2014-07-16 03:15:52,0.01,0.09,0.00,25.35,29.60,31.88,9.34,37.42,1007.11,2031.00,3513.28,3275.91,3558.99,499.67,487.81,19.62,0000 0000 0000 0000 000000
2014-07-16 03:20:53,0.03,0.09,0.00,25.40,29.61,31.89,9.38,37.74,1007.01,2030.98,3513.02,3275.31,3558.66,500.12,488.08,19.67,0000 0000 0000 0000 000000
2014-07-16 03:25:54,0.01,0.09,0.00,25.43,29.62,31.90,9.30,37.45,1007.02,2030.95,3513.00,3275.02,3558.13,499.82,487.69,19.71,0000 0000 0000 0000 000000
2014-07-16 03:30:55,-0.00,0.09,0.00,25.45,29.65,31.92,9.36,37.41,1006.90,2030.90,3512.98,3275.00,3558.02,500.32,488.12,19.75,0000 0000 0000 0000 000000
2014-07-16 03:35:57,-0.01,0.09,0.00,25.48,29.66,31.93,9.32,37.40,1006.85,2030.78,3512.94,3275.00,3558.00,499.70,487.55,19.79,0000 0000 0000 0000 000000
2014-07-16 03:40:58,-0.02,0.09,0.00,25.52,29.68,31.94,9.34,37.38,1006.86,2030.57,3512.57,3274.97,3557.98,500.00,487.82,19.83,0000 0000 0000 0000 000000
2014-07-16 03:45:58,0.02,0.09,0.00,25.57,29.71,31.96,9.31,37.41,1006.86,2030.34,3512.05,3274.79,3557.89,499.75,487.46,19.88,0000 0000 0000 0000 000000
2014-07-16 03:50:59,-0.01,0.09,0.00,25.65,29.73,31.98,9.39,37.46,1006.88,2030.13,3512.00,3274.15,3557.17,500.00,487.60,19.92,0000 0000 0000 0000 000000
2014-07-16 03:56:01,-0.00,0.09,0.00,25.83,29.75,32.03,9.31,37.27,1006.87,2030.03,3511.99,3274.01,3557.01,499.65,486.92,19.96,0000 0000 0000 0000 000000
2014-07-16 04:01:02,-0.00,0.09,0.00,25.91,29.77,32.04,9.39,37.54,1006.85,2030.01,3511.96,3274.00,3557.00,499.78,487.01,20.00,0000 0000 0000 0000 000000
2014-07-16 04:06:03,0.00,0.09,0.00,25.96,29.77,32.06,9.34,37.25,1006.85,2030.02,3511.76,3274.00,3556.99,499.73,486.82,20.04,0000 0000 0000 0000 000000
2014-07-16 04:11:04,0.01,0.09,0.00,26.01,29.79,32.06,9.33,37.24,1006.85,2030.00,3511.16,3273.98,3556.90,499.72,486.72,20.09,0000 0000 0000 0000 000000
2014-07-16 04:16:05,0.00,0.09,0.00,25.93,29.80,32.02,9.27,37.46,1006.71,2030.00,3511.02,3273.94,3556.73,499.60,486.74,20.13,0000 0000 0000 0000 000000
2014-07-16 04:21:06,0.03,0.09,0.00,25.88,29.82,32.02,9.37,39.14,1006.72,2030.00,3510.98,3273.35,3556.16,500.16,487.34,20.17,0000 0000 0000 0000 000000
2014-07-16 04:26:07,0.01,0.09,0.00,25.91,29.84,32.05,9.42,39.84,1006.65,2030.00,3510.52,3273.01,3556.00,500.15,487.31,20.21,0000 0000 0000 0000 000000
2014-07-16 04:31:08,-0.00,0.09,0.00,25.94,29.86,32.08,9.34,39.41,1006.43,2029.99,3510.02,3272.97,3555.98,499.96,486.93,20.25,0000 0000 0000 0000 000000
2014-07-16 04:36:10,0.03,0.10,0.00,25.99,29.89,32.12,9.35,39.45,1006.38,2029.96,3510.00,3272.57,3555.34,500.11,486.76,20.30,0000 0000 0000 0000 000000
2014-07-16 04:41:11,-0.00,0.10,0.00,26.04,29.93,32.15,9.37,39.21,1006.38,2029.77,3509.69,3272.04,3555.01,500.15,486.91,20.34,0000 0000 0000 0000 000000
2014-07-16 04:46:12,-0.05,0.09,0.00,26.07,29.96,32.18,9.30,38.87,1006.36,2029.26,3509.05,3271.96,3554.79,499.65,486.39,20.38,0000 0000 0000 0000 000000
2014-07-16 04:51:13,0.02,0.09,0.00,26.13,30.00,32.23,9.40,39.02,1006.36,2029.04,3508.96,3271.39,3554.05,500.25,486.90,20.42,0000 0000 0000 0000 000000
2014-07-16 04:56:14,0.01,0.10,0.00,26.18,30.04,32.27,9.39,38.86,1006.36,2029.00,3508.47,3271.02,3553.99,499.84,486.28,20.46,0000 0000 0000 0000 000000
2014-07-16 05:01:15,0.02,0.10,0.00,26.23,30.08,32.31,9.36,38.04,1006.36,2029.00,3508.02,3270.94,3553.48,500.13,486.44,20.50,0000 0000 0000 0000 000000
2014-07-16 05:06:17,0.02,0.10,0.00,26.28,30.13,32.35,9.33,37.62,1006.36,2028.99,3507.89,3270.39,3553.00,500.18,486.48,20.55,0000 0000 0000 0000 000000
2014-07-16 05:11:18,0.02,0.10,0.00,26.33,30.17,32.40,9.36,37.79,1006.35,2028.97,3507.18,3270.01,3552.89,499.96,486.19,20.59,0000 0000 0000 0000 000000
2014-07-16 05:16:19,-0.01,0.10,0.00,26.37,30.21,32.43,9.27,37.73,1006.36,2028.74,3507.00,3269.86,3552.20,499.78,485.91,20.63,0000 0000 0000 0000 000000
2014-07-16 05:21:20,-0.02,0.10,0.00,26.41,30.26,32.47,9.30,37.69,1006.36,2028.16,3506.40,3269.09,3551.93,499.70,485.89,20.67,0000 0000 0000 0000 000000
2014-07-16 05:26:22,0.01,0.10,0.00,26.47,30.30,32.51,9.31,37.58,1006.36,2028.01,3506.00,3268.95,3551.18,499.78,485.67,20.71,0000 0000 0000 0000 000000
2014-07-16 05:31:23,0.04,0.10,0.00,26.52,30.34,32.56,9.35,37.48,1006.36,2028.00,3505.50,3268.26,3550.89,499.76,485.49,20.76,0000 0000 0000 0000 000000
2014-07-16 05:36:24,0.06,0.10,0.00,26.56,30.39,32.60,9.36,37.43,1006.36,2028.00,3504.47,3267.54,3549.88,500.17,485.92,20.80,0000 0000 0000 0000 000000
2014-07-16 05:41:25,0.01,0.10,0.00,26.60,30.43,32.64,9.39,37.48,1006.36,2027.96,3503.97,3267.01,3549.08,499.74,485.59,20.84,0000 0000 0000 0000 000000
2014-07-16 05:46:26,0.03,0.10,0.00,26.67,30.48,32.68,9.29,37.42,1006.32,2027.89,3503.39,3266.59,3548.81,499.80,485.62,20.88,0000 0000 0000 0000 000000
2014-07-16 05:51:27,-0.05,0.10,0.00,26.72,30.52,32.73,9.30,37.38,1006.31,2027.32,3502.99,3266.02,3548.06,499.67,485.21,20.92,0000 0000 0000 0000 000000
2014-07-16 05:56:28,0.00,0.10,0.00,26.75,30.56,32.76,9.23,37.34,1006.24,2027.07,3502.45,3265.85,3547.89,500.01,485.63,20.96,0000 0000 0000 0000 000000
2014-07-16 06:01:29,0.03,0.10,0.00,26.78,30.60,32.81,9.29,37.22,1006.29,2027.01,3502.02,3265.14,3547.13,499.77,485.24,21.01,0000 0000 0000 0000 000000
2014-07-16 06:06:31,0.01,0.10,0.00,26.84,30.64,32.86,9.30,37.29,1006.33,2026.99,3501.64,3264.96,3546.85,499.56,484.90,21.05,0000 0000 0000 0000 000000
2014-07-16 06:11:32,0.02,0.11,0.00,26.87,30.68,32.89,9.24,37.36,1006.34,2026.89,3501.03,3264.38,3546.12,499.87,485.22,21.09,0000 0000 0000 0000 000000
2014-07-16 06:16:33,-0.04,0.11,0.00,26.92,30.72,32.93,9.28,37.25,1006.29,2026.50,3500.96,3264.02,3546.00,499.79,485.09,21.13,0000 0000 0000 0000 000000
2014-07-16 06:21:34,-0.01,0.10,0.00,26.97,30.76,32.97,9.27,37.29,1006.27,2026.09,3500.40,3263.98,3545.56,499.83,484.95,21.17,0000 0000 0000 0000 000000
2014-07-16 06:26:35,0.02,0.10,0.00,27.03,30.80,33.00,9.35,37.23,1006.26,2026.01,3500.00,3263.48,3545.03,500.52,485.50,21.22,0000 0000 0000 0000 000000
2014-07-16 06:31:37,0.01,0.10,0.00,27.07,30.84,33.04,9.26,37.35,1006.28,2026.00,3499.67,3263.01,3544.88,499.71,484.49,21.26,0000 0000 0000 0000 000000
2014-07-16 06:36:38,0.02,0.11,0.00,27.14,30.87,33.08,9.35,37.19,1006.25,2025.99,3499.02,3262.99,3544.11,500.38,485.25,21.30,0000 0000 0000 0000 000000
2014-07-16 06:41:39,0.03,0.11,0.00,27.22,30.91,33.13,9.20,37.06,1006.34,2025.96,3498.54,3262.44,3543.90,500.08,484.73,21.34,0000 0000 0000 0000 000000
2014-07-16 06:46:41,-0.03,0.11,0.00,27.27,30.96,33.17,9.33,37.10,1006.33,2025.66,3497.98,3262.01,3543.14,500.36,484.94,21.38,0000 0000 0000 0000 000000
2014-07-16 06:51:42,0.01,0.11,0.00,27.33,30.99,33.20,9.23,37.14,1006.29,2025.13,3497.30,3261.47,3542.64,499.89,484.43,21.43,0000 0000 0000 0000 000000
2014-07-16 06:56:43,0.01,0.11,0.00,27.36,31.04,33.24,9.21,37.13,1006.11,2025.01,3496.72,3260.99,3542.01,499.41,484.01,21.47,0000 0000 0000 0000 000000
2014-07-16 07:01:44,0.03,0.11,0.00,27.42,31.08,33.29,9.25,37.08,1006.18,2025.00,3496.10,3260.55,3541.73,499.84,484.16,21.51,0000 0000 0000 0000 000000
2014-07-16 07:06:45,0.02,0.11,0.00,27.48,31.12,33.33,9.29,37.06,1006.32,2025.00,3495.86,3260.01,3541.02,499.95,484.31,21.55,0000 0000 0000 0000 000000
2014-07-16 07:11:47,0.04,0.11,0.00,27.52,31.17,33.38,9.29,37.09,1006.36,2024.97,3495.10,3259.57,3540.52,499.96,484.39,21.59,0000 0000 0000 0000 000000
2014-07-16 07:16:48,0.00,0.11,0.00,27.56,31.22,33.43,9.21,37.08,1006.36,2024.81,3494.61,3259.01,3539.97,499.63,483.88,21.64,0000 0000 0000 0000 000000
2014-07-16 07:21:49,-0.01,0.11,0.00,27.63,31.27,33.48,9.24,36.98,1006.36,2024.30,3493.74,3258.26,3539.13,499.38,483.50,21.68,0000 0000 0000 0000 000000
2014-07-16 07:26:50,0.02,0.11,0.00,27.70,31.32,33.53,9.35,37.06,1006.36,2024.02,3492.99,3257.84,3538.35,500.25,484.42,21.72,0000 0000 0000 0000 000000
2014-07-16 07:31:51,0.04,0.11,0.00,27.74,31.36,33.57,9.32,36.98,1006.36,2024.00,3492.24,3257.07,3537.76,500.57,484.39,21.76,0000 0000 0000 0000 000000
2014-07-16 07:36:52,0.04,0.12,0.00,27.78,31.41,33.61,9.19,37.02,1006.36,2023.98,3491.57,3256.56,3537.00,499.16,483.19,21.80,0000 0000 0000 0000 000000
2014-07-16 07:41:53,0.02,0.12,0.00,27.83,31.46,33.66,9.29,37.03,1006.36,2023.89,3490.80,3255.95,3536.18,500.03,483.70,21.84,0000 0000 0000 0000 000000
2014-07-16 07:46:54,0.01,0.12,0.00,27.90,31.51,33.71,9.27,36.99,1006.32,2023.56,3490.01,3255.18,3535.58,500.16,483.85,21.89,0000 0000 0000 0000 000000
2014-07-16 07:51:56,0.01,0.12,0.00,27.95,31.56,33.76,9.27,37.13,1006.25,2023.07,3489.14,3254.53,3534.71,500.26,483.81,21.93,0000 0000 0000 0000 000000
2014-07-16 07:56:57,0.04,0.12,0.00,28.01,31.62,33.81,9.22,37.00,1006.32,2023.00,3488.22,3253.78,3533.82,499.77,483.38,21.97,0000 0000 0000 0000 000000
2014-07-16 08:01:58,0.04,0.12,0.00,28.07,31.67,33.85,9.34,36.98,1006.18,2022.97,3487.39,3253.01,3532.96,500.34,483.65,22.01,0000 0000 0000 0000 000000
2014-07-16 08:06:59,0.01,0.12,0.00,28.14,31.72,33.90,9.25,36.92,1006.15,2022.67,3486.38,3252.25,3532.07,499.65,483.00,22.05,0000 0000 0000 0000 000000
2014-07-16 08:12:01,0.01,0.12,0.00,28.19,31.78,33.95,9.30,36.97,1006.22,2022.13,3485.50,3251.53,3531.22,500.35,483.53,22.10,0000 0000 0000 0000 000000
2014-07-16 08:17:02,0.03,0.12,0.00,28.26,31.84,34.00,9.30,36.92,1006.28,2022.00,3484.66,3250.89,3530.28,500.48,483.47,22.14,0000 0000 0000 0000 000000
2014-07-16 08:22:03,0.06,0.13,0.00,28.34,31.89,34.05,9.29,36.92,1006.31,2021.99,3483.64,3250.01,3529.52,500.44,483.48,22.18,0000 0000 0000 0000 000000
2014-07-16 08:27:05,0.04,0.13,0.00,28.40,31.95,34.10,9.25,36.95,1006.34,2021.84,3482.56,3249.13,3528.42,499.72,482.77,22.22,0000 0000 0000 0000 000000
2014-07-16 08:32:06,0.04,0.13,0.00,28.46,32.00,34.16,9.19,36.92,1006.35,2021.25,3481.36,3248.08,3527.22,500.07,482.90,22.26,0000 0000 0000 0000 000000
2014-07-16 08:37:07,0.15,0.13,0.00,28.51,32.06,34.22,9.29,37.01,1006.36,2021.04,3478.42,3245.82,3524.45,499.84,482.75,22.31,0000 0000 0000 0000 000000
2014-07-16 08:42:09,0.21,0.14,0.00,28.58,32.12,34.27,9.31,36.98,1006.36,2020.99,3474.55,3243.06,3521.49,500.16,482.84,22.35,0000 0000 0000 0000 000000
2014-07-16 08:47:10,0.14,0.15,0.00,28.63,32.17,34.33,9.16,36.86,1006.36,2020.94,3471.29,3240.81,3519.19,499.38,481.95,22.39,0000 0000 0000 0000 000000
2014-07-16 08:52:11,0.03,0.15,0.00,28.69,32.23,34.38,9.28,36.92,1006.36,2020.33,3468.86,3239.11,3517.40,499.94,482.34,22.43,0000 0000 0000 0000 000000
2014-07-16 08:57:12,0.09,0.15,0.00,28.76,32.28,34.44,9.23,36.76,1006.36,2020.02,3466.98,3237.74,3515.88,500.04,482.37,22.47,0000 0000 0000 0000 000000
2014-07-16 09:02:13,0.13,0.16,0.00,28.82,32.34,34.49,9.26,36.71,1006.36,2020.00,3464.54,3235.98,3513.92,500.54,482.66,22.51,0000 0000 0000 0000 000000
2014-07-16 09:07:15,0.14,0.17,0.00,28.90,32.39,34.55,9.20,36.77,1006.36,2019.94,3461.76,3233.99,3511.74,500.13,482.18,22.56,0000 0000 0000 0000 000000
2014-07-16 09:12:16,0.06,0.17,0.00,28.96,32.45,34.61,9.27,36.83,1006.36,2019.44,3459.10,3232.00,3509.59,499.84,481.82,22.60,0000 0000 0000 0000 000000
2014-07-16 09:17:17,0.18,0.17,0.00,29.02,32.50,34.66,9.24,36.88,1006.37,2019.04,3455.70,3229.59,3506.99,499.91,481.64,22.64,0000 0000 0000 0000 000000
2014-07-16 09:22:18,0.32,0.19,0.00,29.09,32.56,34.72,9.21,36.85,1006.36,2019.00,3450.00,3225.67,3502.77,499.93,481.72,22.68,0000 0000 0000 0000 000000
2014-07-16 09:27:19,0.33,0.20,0.00,29.13,32.61,34.77,9.25,36.66,1006.38,2018.88,3443.10,3220.87,3497.64,500.45,481.94,22.72,0000 0000 0000 0000 000000
2014-07-16 09:32:21,0.55,0.22,0.00,29.19,32.67,34.83,9.23,36.66,1006.38,2018.34,3433.26,3213.53,3489.82,500.12,481.75,22.77,0000 0000 0000 0000 000000
2014-07-16 09:37:22,0.68,0.25,0.00,29.24,32.72,34.89,9.18,36.68,1006.52,2018.02,3420.95,3204.08,3479.69,499.80,481.60,22.81,0000 0000 0000 0000 000000
2014-07-16 09:42:23,0.70,0.28,0.00,29.29,32.78,34.94,9.20,36.71,1006.83,2017.98,3408.65,3194.67,3469.68,499.98,481.66,22.85,0000 0000 0000 0000 000000
2014-07-16 09:47:24,1.02,0.31,0.00,29.33,32.83,35.00,9.21,36.73,1006.85,2017.72,3391.79,3181.63,3455.97,500.15,481.82,22.89,0000 0000 0000 0000 000000
2014-07-16 09:52:25,0.59,0.35,0.00,29.39,32.88,35.06,9.21,36.77,1006.86,2017.16,3377.97,3171.02,3444.76,500.22,481.81,22.93,0000 0000 0000 0000 000000
2014-07-16 09:57:26,0.33,0.36,0.30,29.44,32.94,35.11,9.22,36.77,1006.86,2017.00,3371.08,3165.78,3439.13,500.13,481.68,22.97,0000 0000 0000 0000 000000
2014-07-16 10:02:28,0.21,0.37,1.00,29.49,32.98,35.16,9.24,36.73,1006.85,2016.98,3367.00,3162.59,3435.75,499.99,481.31,23.02,0000 0000 0000 0000 000000
2014-07-16 10:07:29,0.07,0.38,1.00,29.55,33.03,35.21,9.24,36.76,1006.87,2016.59,3364.33,3160.52,3433.52,500.09,481.50,23.06,0000 0000 0000 0000 000000
2014-07-16 10:12:30,0.05,0.38,1.00,29.62,33.09,35.27,9.24,36.65,1006.86,2016.08,3362.49,3159.12,3431.89,500.06,481.23,23.10,0000 0000 0000 0000 000000
2014-07-16 10:17:31,0.10,0.39,1.00,29.67,33.14,35.32,9.20,36.63,1006.96,2016.00,3360.72,3157.75,3430.36,499.64,480.79,23.14,0000 0000 0000 0000 000000
2014-07-16 10:22:33,0.16,0.39,1.00,29.71,33.20,35.38,9.27,36.70,1007.10,2015.98,3358.15,3155.73,3428.16,500.37,481.52,23.18,0000 0000 0000 0000 000000
2014-07-16 10:27:34,0.12,0.40,0.67,29.78,33.25,35.44,9.23,36.82,1007.25,2015.67,3354.95,3153.34,3425.61,499.70,480.71,23.23,0000 0000 0000 0000 000000
2014-07-16 10:32:35,0.13,0.40,0.00,29.86,33.31,35.49,9.16,36.76,1007.30,2015.05,3351.50,3150.81,3422.82,500.08,480.86,23.27,0000 0000 0000 0000 000000
2014-07-16 10:37:36,0.14,0.41,0.00,29.91,33.36,35.55,9.15,36.74,1007.33,2014.98,3348.91,3148.68,3420.56,499.73,480.47,23.31,0000 0000 0000 0000 000000
2014-07-16 10:42:38,0.07,0.41,0.00,29.99,33.42,35.62,9.24,36.81,1007.34,2014.77,3347.18,3147.26,3418.91,500.03,480.75,23.35,0000 0000 0000 0000 000000
2014-07-16 10:47:39,0.04,0.42,0.00,30.07,33.47,35.68,9.24,36.80,1007.34,2014.10,3345.31,3145.61,3417.22,500.00,480.55,23.39,0000 0000 0000 0000 000000
2014-07-16 10:52:40,0.11,0.42,0.00,30.15,33.53,35.75,9.24,36.75,1007.34,2014.00,3343.32,3144.03,3415.43,499.80,480.44,23.44,0000 0000 0000 0000 000000
2014-07-16 10:57:41,0.13,0.43,0.00,30.21,33.58,35.82,9.22,36.78,1007.35,2013.89,3341.01,3142.08,3413.35,500.23,480.74,23.48,0000 0000 0000 0000 000000
2014-07-16 11:02:43,0.06,0.43,0.00,30.27,33.64,35.88,9.22,36.67,1007.37,2013.29,3338.75,3140.28,3411.43,500.02,480.48,23.52,0000 0000 0000 0000 000000
2014-07-16 11:07:44,0.12,0.43,0.00,30.31,33.70,35.95,9.25,36.62,1007.36,2013.01,3336.51,3138.49,3409.44,500.09,480.35,23.56,0000 0000 0000 0000 000000
2014-07-16 11:12:45,0.12,0.44,0.00,30.35,33.75,36.01,9.21,36.69,1007.48,2012.99,3334.28,3136.66,3407.53,500.14,480.34,23.60,0000 0000 0000 0000 000000
2014-07-16 11:17:46,0.32,0.45,0.00,30.37,33.81,36.06,9.27,36.67,1007.63,2012.86,3330.47,3133.05,3403.38,499.57,479.90,23.64,0000 0000 0000 0000 000000
2014-07-16 11:22:48,0.14,0.46,0.00,30.38,33.86,36.12,9.26,36.63,1007.42,2012.22,3326.47,3128.83,3398.75,500.50,480.64,23.69,0000 0000 0000 0000 000000
2014-07-16 11:27:49,0.07,0.46,0.00,30.41,33.91,36.16,9.19,36.63,1007.61,2012.02,3324.91,3127.56,3397.28,499.87,480.04,23.73,0000 0000 0000 0000 000000
2014-07-16 11:32:50,0.05,0.46,0.00,30.42,33.96,36.21,9.20,36.69,1007.83,2012.00,3323.88,3126.82,3396.38,499.97,480.33,23.77,0000 0000 0000 0000 000000
2014-07-16 11:37:52,0.04,0.47,0.00,30.45,34.01,36.25,9.23,36.69,1007.83,2011.87,3322.99,3125.87,3395.42,499.96,480.18,23.81,0000 0000 0000 0000 000000
2014-07-16 11:42:53,-0.03,0.47,0.00,30.45,34.05,36.29,9.17,36.68,1007.84,2011.21,3322.08,3125.06,3394.47,499.71,480.24,23.85,0000 0000 0000 0000 000000
2014-07-16 11:47:54,0.02,0.47,0.00,30.44,34.10,36.33,9.19,36.73,1007.84,2011.00,3321.79,3124.76,3394.00,500.40,480.79,23.90,0000 0000 0000 0000 000000
2014-07-16 11:52:55,0.04,0.47,0.00,30.47,34.14,36.37,9.18,36.69,1007.85,2010.98,3320.84,3124.05,3393.38,499.96,480.23,23.94,0000 0000 0000 0000 000000
2014-07-16 11:57:56,-0.01,0.47,0.00,30.50,34.18,36.41,9.17,36.73,1007.84,2010.64,3320.07,3123.49,3392.83,499.48,479.72,23.98,0000 0000 0000 0000 000000
2014-07-16 12:02:58,-0.02,0.47,0.00,30.52,34.22,36.44,9.21,36.71,1007.94,2010.09,3319.97,3123.01,3392.06,499.89,480.24,24.02,0000 0000 0000 0000 000000
2014-07-16 12:07:59,0.04,0.47,0.00,30.52,34.26,36.48,9.27,36.65,1008.23,2010.00,3319.42,3122.62,3391.75,500.02,480.31,24.06,0000 0000 0000 0000 000000
2014-07-16 12:13:00,0.01,0.47,0.00,30.54,34.29,36.52,9.26,36.68,1008.30,2009.91,3318.99,3122.02,3391.03,500.24,480.66,24.11,0000 0000 0000 0000 000000
2014-07-16 12:18:01,-0.03,0.47,0.00,30.54,34.33,36.54,9.16,36.59,1008.31,2009.68,3318.82,3121.98,3391.00,499.82,480.26,24.15,0000 0000 0000 0000 000000
2014-07-16 12:23:03,-0.01,0.47,0.00,30.54,34.36,36.58,9.26,36.67,1008.31,2009.11,3318.11,3121.56,3390.75,500.57,480.89,24.19,0000 0000 0000 0000 000000
2014-07-16 12:28:04,0.01,0.47,0.00,30.55,34.39,36.62,9.19,36.72,1008.31,2009.00,3318.00,3121.07,3390.15,499.89,480.26,24.23,0000 0000 0000 0000 000000
2014-07-16 12:33:05,0.01,0.47,0.00,30.57,34.42,36.64,9.21,36.76,1008.31,2009.00,3317.48,3120.99,3389.98,500.13,480.40,24.27,0000 0000 0000 0000 000000
2014-07-16 12:38:06,0.02,0.47,0.00,30.57,34.45,36.66,9.23,36.68,1008.33,2008.99,3317.02,3120.74,3389.57,500.30,480.76,24.31,0000 0000 0000 0000 000000
2014-07-16 12:43:07,0.01,0.47,0.00,30.59,34.48,36.70,9.23,36.70,1008.33,2008.95,3316.96,3120.20,3389.09,500.01,480.45,24.36,0000 0000 0000 0000 000000
2014-07-16 12:48:08,-0.00,0.47,0.00,30.60,34.51,36.72,9.19,36.73,1008.33,2008.75,3316.29,3120.01,3389.00,499.84,480.28,24.40,0000 0000 0000 0000 000000
2014-07-16 12:53:08,-0.05,0.47,0.00,30.59,34.53,36.75,9.23,36.73,1008.32,2008.29,3316.00,3119.90,3388.69,499.66,479.96,24.44,0000 0000 0000 0000 000000
2014-07-16 12:58:10,0.03,0.47,0.00,30.61,34.56,36.76,9.24,36.79,1008.32,2008.05,3315.59,3119.30,3388.04,500.15,480.38,24.48,0000 0000 0000 0000 000000